Time,TemperatureF,DewpointF,PressureIn,WindDirection,WindDirectionDegrees,WindSpeedMPH,WindSpeedGustMPH,Humidity,HourlyPrecipIn,Conditions,Clouds,dailyrainin,SolarRadiationWatts/m^2,SoftwareType,DateUTC
2013-09-13 00:00:00,69.9,65.6,28.74,NE,43,0.0,3.0,86,0.00,FEW,,0.00,0.0,WeatherDisplay:10.37,2013-09-13 05:00:00,
2013-09-13 00:10:00,69.8,65.4,28.74,NE,43,0.0,1.0,86,0.00,FEW,,0.00,0.0,WeatherDisplay:10.37,2013-09-13 05:10:00,
2013-09-13 00:20:00,69.7,65.3,28.74,NE,43,0.0,1.0,86,0.00,FEW,,0.00,0.0,WeatherDisplay:10.37,2013-09-13 05:20:00,
2013-09-13 00:30:00,69.5,65.5,28.74,NE,43,0.0,3.0,87,0.00,FEW,,0.00,0.0,WeatherDisplay:10.37,2013-09-13 05:30:00,
2013-09-13 00:40:00,69.7,65.0,28.74,NNE,27,0.0,4.0,85,0.00,FEW,,0.00,0.0,WeatherDisplay:10.37,2013-09-13 05:40:00,
2013-09-13 00:50:00,69.9,64.5,28.75,NE,41,0.0,4.0,83,0.00,FEW,,0.00,0.0,WeatherDisplay:10.37,2013-09-13 05:50:00,
2013-09-13 01:00:00,70.2,63.4,28.74,NE,48,1.0,7.0,79,0.00,FEW,,0.00,0.0,WeatherDisplay:10.37,2013-09-13 06:00:00,
2013-09-13 01:10:00,70.4,61.7,28.75,NE,47,2.0,8.0,74,0.00,FEW,,0.00,0.0,WeatherDisplay:10.37,2013-09-13 06:10:00,
2013-09-13 01:20:00,70.6,61.1,28.75,NE,43,0.0,5.0,72,0.00,FEW,,0.00,0.0,WeatherDisplay:10.37,2013-09-13 06:20:00,
2013-09-13 01:30:00,70.5,61.0,28.75,NE,52,0.0,6.0,72,0.00,FEW,,0.00,0.0,WeatherDisplay:10.37,2013-09-13 06:30:00,
2013-09-13 01:40:00,70.3,60.8,28.75,NE,55,2.0,6.0,72,0.00,FEW,,0.00,0.0,WeatherDisplay:10.37,2013-09-13 06:40:00,
2013-09-13 01:50:00,70.0,60.2,28.75,NE,47,1.0,6.0,71,0.00,FEW,,0.00,0.0,WeatherDisplay:10.37,2013-09-13 06:50:00,
2013-09-13 02:00:00,69.7,59.5,28.75,NE,45,2.0,6.0,70,0.00,FEW,,0.00,0.0,WeatherDisplay:10.37,2013-09-13 07:00:00,
2013-09-13 02:10:00,69.5,58.5,28.75,NE,53,1.0,9.0,68,0.00,FEW,,0.00,0.0,WeatherDisplay:10.37,2013-09-13 07:10:00,
2013-09-13 02:20:00,69.4,57.5,28.75,NE,47,0.0,7.0,66,0.00,FEW,,0.00,0.0,WeatherDisplay:10.37,2013-09-13 07:20:00,
2013-09-13 02:30:00,69.3,56.6,28.75,NE,54,1.0,7.0,64,0.00,FEW,,0.00,0.0,WeatherDisplay:10.37,2013-09-13 07:30:00,
2013-09-13 02:40:00,69.2,55.6,28.75,NE,56,2.0,9.0,62,0.00,FEW,,0.00,0.0,WeatherDisplay:10.37,2013-09-13 07:40:00,
2013-09-13 02:50:00,69.0,55.4,28.75,ENE,61,2.0,7.0,62,0.00,FEW,,0.00,0.0,WeatherDisplay:10.37,2013-09-13 07:50:00,
2013-09-13 03:00:00,68.8,55.2,28.75,NE,53,2.0,7.0,62,0.00,FEW,,0.00,0.0,WeatherDisplay:10.37,2013-09-13 08:00:00,
2013-09-13 03:10:00,68.5,55.0,28.75,ENE,57,1.0,7.0,62,0.00,FEW,,0.00,0.0,WeatherDisplay:10.37,2013-09-13 08:10:00,
2013-09-13 03:20:00,68.2,54.7,28.75,NE,52,1.0,7.0,62,0.00,FEW,,0.00,0.0,WeatherDisplay:10.37,2013-09-13 08:20:00,
2013-09-13 03:30:00,67.8,54.3,28.75,NE,52,2.0,6.0,62,0.00,FEW,,0.00,0.0,WeatherDisplay:10.37,2013-09-13 08:30:00,
2013-09-13 03:40:00,67.5,53.6,28.75,ENE,59,2.0,7.0,61,0.00,FEW,,0.00,0.0,WeatherDisplay:10.37,2013-09-13 08:40:00,
2013-09-13 03:50:00,67.3,53.8,28.75,NE,49,3.0,10.0,62,0.00,FEW,,0.00,0.0,WeatherDisplay:10.37,2013-09-13 08:50:00,
2013-09-13 04:00:00,67.0,53.5,28.75,NE,48,2.0,10.0,62,0.00,FEW,,0.00,0.0,WeatherDisplay:10.37,2013-09-13 09:00:00,
2013-09-13 04:10:00,66.6,53.2,28.75,NE,45,2.0,7.0,62,0.00,FEW,,0.00,0.0,WeatherDisplay:10.37,2013-09-13 09:10:00,
2013-09-13 04:20:00,66.3,52.9,28.75,NE,49,1.0,9.0,62,0.00,FEW,,0.00,0.0,WeatherDisplay:10.37,2013-09-13 09:20:00,
2013-09-13 04:30:00,65.8,52.9,28.75,NE,45,2.0,6.0,63,0.00,FEW,,0.00,0.0,WeatherDisplay:10.37,2013-09-13 09:30:00,
2013-09-13 04:40:00,65.4,52.5,28.75,NE,54,3.0,12.0,63,0.00,FEW,,0.00,0.0,WeatherDisplay:10.37,2013-09-13 09:40:00,
2013-09-13 04:50:00,65.1,52.6,28.75,NE,44,3.0,10.0,64,0.00,FEW,,0.00,0.0,WeatherDisplay:10.37,2013-09-13 09:50:00,
2013-09-13 05:00:00,64.7,52.3,28.75,NE,45,2.0,6.0,64,0.00,FEW,,0.00,0.0,WeatherDisplay:10.37,2013-09-13 10:00:00,
2013-09-13 05:10:00,64.4,52.4,28.75,NE,45,1.0,6.0,65,0.00,FEW,,0.00,0.0,WeatherDisplay:10.37,2013-09-13 10:10:00,
2013-09-13 05:20:00,64.2,52.2,28.76,NE,45,0.0,5.0,65,0.00,FEW,,0.00,0.0,WeatherDisplay:10.37,2013-09-13 10:20:00,
2013-09-13 05:30:00,64.0,52.0,28.76,NE,51,1.0,6.0,65,0.00,FEW,,0.00,0.0,WeatherDisplay:10.37,2013-09-13 10:30:00,
2013-09-13 05:40:00,63.7,52.2,28.76,NE,48,0.0,4.0,66,0.00,FEW,,0.00,0.0,WeatherDisplay:10.37,2013-09-13 10:40:00,
2013-09-13 05:50:00,63.5,51.9,28.77,NE,41,0.0,4.0,66,0.00,FEW,,0.00,0.0,WeatherDisplay:10.37,2013-09-13 10:50:00,
2013-09-13 06:00:00,63.2,52.0,28.77,NE,40,0.0,2.0,67,0.00,FEW,,0.00,0.0,WeatherDisplay:10.37,2013-09-13 11:00:00,
2013-09-13 06:10:00,62.6,51.9,28.77,NE,40,0.0,1.0,68,0.00,FEW,,0.00,0.0,WeatherDisplay:10.37,2013-09-13 11:10:00,
2013-09-13 06:20:00,62.1,51.8,28.77,NE,40,0.0,0.0,69,0.00,FEW,,0.00,0.0,WeatherDisplay:10.37,2013-09-13 11:20:00,
2013-09-13 06:30:00,61.7,52.2,28.77,NE,40,0.0,1.0,71,0.00,FEW,,0.00,0.0,WeatherDisplay:10.37,2013-09-13 11:30:00,
2013-09-13 06:40:00,61.2,52.1,28.78,NE,40,0.0,0.0,72,0.00,FEW,,0.00,0.0,WeatherDisplay:10.37,2013-09-13 11:40:00,
2013-09-13 06:50:00,60.6,51.9,28.78,NE,40,0.0,0.0,73,0.00,FEW,,0.00,0.0,WeatherDisplay:10.37,2013-09-13 11:50:00,
2013-09-13 07:00:00,60.2,51.8,28.78,NE,40,0.0,0.0,74,0.00,FEW,,0.00,0.0,WeatherDisplay:10.37,2013-09-13 12:00:00,
2013-09-13 07:10:00,59.8,52.2,28.78,NE,40,0.0,0.0,76,0.00,FEW,,0.00,0.0,WeatherDisplay:10.37,2013-09-13 12:10:00,
2013-09-13 07:20:00,59.6,52.4,28.78,NE,40,0.0,0.0,77,0.00,FEW,,0.00,0.0,WeatherDisplay:10.37,2013-09-13 12:20:00,
2013-09-13 07:30:00,59.7,52.1,28.78,NE,40,0.0,0.0,76,0.00,FEW,,0.00,0.0,WeatherDisplay:10.37,2013-09-13 12:30:00,
2013-09-13 07:40:00,60.4,52.4,28.78,NE,40,0.0,2.0,75,0.00,FEW,,0.00,0.0,WeatherDisplay:10.37,2013-09-13 12:40:00,
2013-09-13 07:50:00,60.8,52.1,28.78,NE,40,0.0,3.0,73,0.00,FEW,,0.00,0.0,WeatherDisplay:10.37,2013-09-13 12:50:00,
2013-09-13 08:00:00,61.1,52.4,28.78,NE,40,0.0,4.0,73,0.00,FEW,,0.00,0.0,WeatherDisplay:10.37,2013-09-13 13:00:00,
2013-09-13 08:10:00,61.4,52.3,28.79,NE,40,0.0,1.0,72,0.00,FEW,,0.00,0.0,WeatherDisplay:10.37,2013-09-13 13:10:00,
2013-09-13 08:20:00,61.8,52.3,28.79,NE,40,0.0,4.0,71,0.00,FEW,,0.00,0.0,WeatherDisplay:10.37,2013-09-13 13:20:00,
2013-09-13 08:30:00,62.6,53.4,28.79,NE,40,0.0,3.0,72,0.00,FEW,,0.00,0.0,WeatherDisplay:10.37,2013-09-13 13:30:00,
2013-09-13 08:40:00,63.7,53.0,28.79,NE,48,1.0,4.0,68,0.00,FEW,,0.00,0.0,WeatherDisplay:10.37,2013-09-13 13:40:00,
2013-09-13 08:50:00,63.8,53.1,28.79,ENE,66,0.0,5.0,68,0.00,FEW,,0.00,0.0,WeatherDisplay:10.37,2013-09-13 13:50:00,
2013-09-13 09:00:00,64.0,53.6,28.79,ENE,76,0.0,3.0,69,0.00,FEW,,0.00,0.0,WeatherDisplay:10.37,2013-09-13 14:00:00,
2013-09-13 09:10:00,64.2,53.4,28.79,ENE,66,1.0,4.0,68,0.00,FEW,,0.00,0.0,WeatherDisplay:10.37,2013-09-13 14:10:00,
2013-09-13 09:20:00,64.4,53.6,28.79,ENE,61,1.0,4.0,68,0.00,FEW,,0.00,0.0,WeatherDisplay:10.37,2013-09-13 14:20:00,
2013-09-13 09:30:00,64.6,53.4,28.79,ENE,60,2.0,5.0,67,0.00,FEW,,0.00,0.0,WeatherDisplay:10.37,2013-09-13 14:30:00,
2013-09-13 09:40:00,64.9,54.1,28.79,ENE,58,0.0,4.0,68,0.00,FEW,,0.00,0.0,WeatherDisplay:10.37,2013-09-13 14:40:00,
2013-09-13 09:50:00,65.2,54.0,28.80,ENE,58,0.0,3.0,67,0.00,FEW,,0.00,0.0,WeatherDisplay:10.37,2013-09-13 14:50:00,
2013-09-13 10:00:00,65.7,54.8,28.80,ENE,58,0.0,2.0,68,0.00,FEW,,0.00,0.0,WeatherDisplay:10.37,2013-09-13 15:00:00,
2013-09-13 10:10:00,66.2,55.3,28.80,ENE,58,0.0,4.0,68,0.00,FEW,,0.00,0.0,WeatherDisplay:10.37,2013-09-13 15:10:00,
2013-09-13 10:20:00,67.4,56.8,28.80,ENE,58,0.0,1.0,69,0.00,FEW,,0.00,0.0,WeatherDisplay:10.37,2013-09-13 15:20:00,
2013-09-13 10:30:00,69.0,57.2,28.80,ENE,58,0.0,3.0,66,0.00,FEW,,0.00,0.0,WeatherDisplay:10.37,2013-09-13 15:30:00,
2013-09-13 10:40:00,70.0,56.4,28.80,ENE,60,0.0,7.0,62,0.00,FEW,,0.00,0.0,WeatherDisplay:10.37,2013-09-13 15:40:00,
2013-09-13 10:50:00,69.6,54.7,28.80,NE,56,0.0,6.0,59,0.00,FEW,,0.00,0.0,WeatherDisplay:10.37,2013-09-13 15:50:00,
2013-09-13 11:00:00,69.7,54.8,28.80,ESE,112,0.0,6.0,59,0.00,FEW,,0.00,0.0,WeatherDisplay:10.37,2013-09-13 16:00:00,
2013-09-13 11:10:00,70.5,54.5,28.80,ESE,115,2.0,10.0,57,0.00,FEW,,0.00,0.0,WeatherDisplay:10.37,2013-09-13 16:10:00,
2013-09-13 11:20:00,70.3,54.8,28.80,NE,46,1.0,6.0,58,0.00,FEW,,0.00,0.0,WeatherDisplay:10.37,2013-09-13 16:20:00,
2013-09-13 11:30:00,70.9,54.9,28.79,ENE,66,1.0,4.0,57,0.00,FEW,,0.00,0.0,WeatherDisplay:10.37,2013-09-13 16:30:00,
2013-09-13 11:40:00,71.7,54.7,28.79,NNE,28,1.0,9.0,55,0.00,FEW,,0.00,0.0,WeatherDisplay:10.37,2013-09-13 16:40:00,
2013-09-13 11:50:00,71.8,54.8,28.79,NE,43,3.0,9.0,55,0.00,FEW,,0.00,0.0,WeatherDisplay:10.37,2013-09-13 16:50:00,
2013-09-13 12:00:00,72.2,53.6,28.78,NE,47,3.0,10.0,52,0.00,FEW,,0.00,0.0,WeatherDisplay:10.37,2013-09-13 17:00:00,
2013-09-13 12:10:00,72.3,55.2,28.78,NE,49,2.0,7.0,55,0.00,FEW,,0.00,0.0,WeatherDisplay:10.37,2013-09-13 17:10:00,
2013-09-13 12:20:00,73.3,54.6,28.77,NE,40,2.0,7.0,52,0.00,FEW,,0.00,0.0,WeatherDisplay:10.37,2013-09-13 17:20:00,
2013-09-13 12:30:00,73.7,54.5,28.77,NE,53,0.0,6.0,51,0.00,FEW,,0.00,0.0,WeatherDisplay:10.37,2013-09-13 17:30:00,
2013-09-13 12:40:00,73.6,54.9,28.76,ENE,60,0.0,5.0,52,0.00,FEW,,0.00,0.0,WeatherDisplay:10.37,2013-09-13 17:40:00,
2013-09-13 12:50:00,73.9,55.2,28.76,NE,45,0.0,8.0,52,0.00,FEW,,0.00,0.0,WeatherDisplay:10.37,2013-09-13 17:50:00,
2013-09-13 13:00:00,73.3,55.6,28.76,NE,54,0.0,9.0,54,0.00,FEW,,0.00,0.0,WeatherDisplay:10.37,2013-09-13 18:00:00,
2013-09-13 13:10:00,74.1,55.4,28.76,ENE,57,0.0,9.0,52,0.00,FEW,,0.00,0.0,WeatherDisplay:10.37,2013-09-13 18:10:00,
2013-09-13 13:20:00,74.6,54.1,28.75,NE,43,1.0,10.0,49,0.00,FEW,,0.00,0.0,WeatherDisplay:10.37,2013-09-13 18:20:00,
2013-09-13 13:30:00,74.3,54.5,28.75,NE,54,1.0,7.0,50,0.00,FEW,,0.00,0.0,WeatherDisplay:10.37,2013-09-13 18:30:00,
2013-09-13 13:40:00,74.3,55.6,28.74,ENE,65,2.0,7.0,52,0.00,FEW,,0.00,0.0,WeatherDisplay:10.37,2013-09-13 18:40:00,
2013-09-13 13:50:00,74.2,54.9,28.74,NE,50,3.0,7.0,51,0.00,FEW,,0.00,0.0,WeatherDisplay:10.37,2013-09-13 18:50:00,
2013-09-13 14:00:00,74.4,56.7,28.74,ENE,67,1.0,6.0,54,0.00,FEW,,0.00,0.0,WeatherDisplay:10.37,2013-09-13 19:00:00,
2013-09-13 14:10:00,74.6,55.3,28.74,ENE,63,0.0,5.0,51,0.00,FEW,,0.00,0.0,WeatherDisplay:10.37,2013-09-13 19:10:00,
2013-09-13 14:20:00,75.3,55.3,28.74,North,349,5.0,7.0,50,0.00,FEW,,0.00,0.0,WeatherDisplay:10.37,2013-09-13 19:20:00,
2013-09-13 14:30:00,75.3,55.9,28.73,NNE,21,2.0,7.0,51,0.00,FEW,,0.00,0.0,WeatherDisplay:10.37,2013-09-13 19:30:00,
2013-09-13 14:40:00,74.8,56.0,28.73,NNE,32,1.0,9.0,52,0.00,FEW,,0.00,0.0,WeatherDisplay:10.37,2013-09-13 19:40:00,
2013-09-13 14:50:00,74.7,55.9,28.73,NE,37,1.0,7.0,52,0.00,FEW,,0.00,0.0,WeatherDisplay:10.37,2013-09-13 19:50:00,
2013-09-13 15:00:00,74.3,55.0,28.73,NE,50,1.0,10.0,51,0.00,FEW,,0.00,0.0,WeatherDisplay:10.37,2013-09-13 20:00:00,
2013-09-13 15:10:00,73.9,54.6,28.72,NE,54,1.0,5.0,51,0.00,FEW,,0.00,0.0,WeatherDisplay:10.37,2013-09-13 20:10:00,
2013-09-13 15:20:00,73.8,55.1,28.72,NE,49,1.0,9.0,52,0.00,FEW,,0.00,0.0,WeatherDisplay:10.37,2013-09-13 20:20:00,
2013-09-13 15:30:00,74.0,56.3,28.72,NE,48,0.0,5.0,54,0.00,FEW,,0.00,0.0,WeatherDisplay:10.37,2013-09-13 20:30:00,
2013-09-13 15:40:00,74.3,55.0,28.72,ENE,59,1.0,5.0,51,0.00,FEW,,0.00,0.0,WeatherDisplay:10.37,2013-09-13 20:40:00,
2013-09-13 15:50:00,74.1,55.3,28.72,NE,41,0.0,6.0,52,0.00,FEW,,0.00,0.0,WeatherDisplay:10.37,2013-09-13 20:50:00,
2013-09-13 16:00:00,74.0,53.6,28.72,NE,52,2.0,6.0,49,0.00,FEW,,0.00,0.0,WeatherDisplay:10.37,2013-09-13 21:00:00,
2013-09-13 16:10:00,74.2,53.8,28.72,NE,49,0.0,5.0,49,0.00,FEW,,0.00,0.0,WeatherDisplay:10.37,2013-09-13 21:10:00,
2013-09-13 16:20:00,74.4,54.5,28.72,NE,49,1.0,5.0,50,0.00,FEW,,0.00,0.0,WeatherDisplay:10.37,2013-09-13 21:20:00,
2013-09-13 16:30:00,74.7,54.8,28.71,NE,39,1.0,7.0,50,0.00,FEW,,0.00,0.0,WeatherDisplay:10.37,2013-09-13 21:30:00,
2013-09-13 16:40:00,74.7,53.7,28.71,NE,47,2.0,12.0,48,0.00,FEW,,0.00,0.0,WeatherDisplay:10.37,2013-09-13 21:40:00,
2013-09-13 16:50:00,74.6,54.2,28.71,NE,51,2.0,9.0,49,0.00,FEW,,0.00,0.0,WeatherDisplay:10.37,2013-09-13 21:50:00,
2013-09-13 17:00:00,74.3,53.9,28.70,NE,48,2.0,7.0,49,0.00,FEW,,0.00,0.0,WeatherDisplay:10.37,2013-09-13 22:00:00,
2013-09-13 17:10:00,73.9,53.5,28.71,NE,54,3.0,9.0,49,0.00,FEW,,0.00,0.0,WeatherDisplay:10.37,2013-09-13 22:10:00,
2013-09-13 17:20:00,73.2,52.9,28.71,NE,53,2.0,13.0,49,0.00,FEW,,0.00,0.0,WeatherDisplay:10.37,2013-09-13 22:20:00,
2013-09-13 17:30:00,72.6,52.9,28.71,NE,54,3.0,10.0,50,0.00,FEW,,0.00,0.0,WeatherDisplay:10.37,2013-09-13 22:30:00,
2013-09-13 17:40:00,72.2,53.1,28.71,NE,48,2.0,9.0,51,0.00,FEW,,0.00,0.0,WeatherDisplay:10.37,2013-09-13 22:40:00,
2013-09-13 17:50:00,71.8,53.7,28.71,NE,46,0.0,5.0,53,0.00,FEW,,0.00,0.0,WeatherDisplay:10.37,2013-09-13 22:50:00,
2013-09-13 18:00:00,71.5,54.0,28.71,NE,51,0.0,7.0,54,0.00,FEW,,0.00,0.0,WeatherDisplay:10.37,2013-09-13 23:00:00,
2013-09-13 18:10:00,71.2,53.7,28.71,NE,52,0.0,5.0,54,0.00,FEW,,0.00,0.0,WeatherDisplay:10.37,2013-09-13 23:10:00,
2013-09-13 18:20:00,70.9,53.9,28.71,NE,52,0.0,0.0,55,0.00,FEW,,0.00,0.0,WeatherDisplay:10.37,2013-09-13 23:20:00,
2013-09-13 18:30:00,70.3,55.3,28.71,NE,52,0.0,0.0,59,0.00,FEW,,0.00,0.0,WeatherDisplay:10.37,2013-09-13 23:30:00,
2013-09-13 18:40:00,69.3,56.2,28.71,NE,52,0.0,0.0,63,0.00,FEW,,0.00,0.0,WeatherDisplay:10.37,2013-09-13 23:40:00,
2013-09-13 18:50:00,68.3,56.1,28.71,NE,52,0.0,0.0,65,0.00,FEW,,0.00,0.0,WeatherDisplay:10.37,2013-09-13 23:50:00,
2013-09-13 19:00:00,67.2,55.5,28.70,NE,52,0.0,0.0,66,0.00,FEW,,0.00,0.0,WeatherDisplay:10.37,2013-09-14 00:00:00,
2013-09-13 19:10:00,66.4,55.1,28.70,NE,52,0.0,0.0,67,0.00,FEW,,0.00,0.0,WeatherDisplay:10.37,2013-09-14 00:10:00,
2013-09-13 19:20:00,65.3,55.3,28.71,NE,52,0.0,0.0,70,0.00,FEW,,0.00,0.0,WeatherDisplay:10.37,2013-09-14 00:20:00,
2013-09-13 19:30:00,64.4,54.8,28.71,NE,52,0.0,0.0,71,0.00,FEW,,0.00,0.0,WeatherDisplay:10.37,2013-09-14 00:30:00,
2013-09-13 19:40:00,63.7,54.5,28.71,NE,52,0.0,0.0,72,0.00,FEW,,0.00,0.0,WeatherDisplay:10.37,2013-09-14 00:40:00,
2013-09-13 19:50:00,62.8,54.0,28.71,NE,52,0.0,0.0,73,0.00,FEW,,0.00,0.0,WeatherDisplay:10.37,2013-09-14 00:50:00,
2013-09-13 20:00:00,62.1,54.4,28.71,NE,52,0.0,0.0,76,0.00,FEW,,0.00,0.0,WeatherDisplay:10.37,2013-09-14 01:00:00,
2013-09-13 20:10:00,61.3,54.4,28.71,NE,52,0.0,0.0,78,0.00,FEW,,0.00,0.0,WeatherDisplay:10.37,2013-09-14 01:10:00,
2013-09-13 20:20:00,60.7,54.5,28.71,NE,52,0.0,0.0,80,0.00,FEW,,0.00,0.0,WeatherDisplay:10.37,2013-09-14 01:20:00,
2013-09-13 20:30:00,59.8,53.6,28.72,NE,52,0.0,0.0,80,0.00,FEW,,0.00,0.0,WeatherDisplay:10.37,2013-09-14 01:30:00,
2013-09-13 20:40:00,59.4,53.5,28.72,NE,52,0.0,0.0,81,0.00,FEW,,0.00,0.0,WeatherDisplay:10.37,2013-09-14 01:40:00,
2013-09-13 20:50:00,59.0,53.2,28.72,NE,52,0.0,0.0,81,0.00,FEW,,0.00,0.0,WeatherDisplay:10.37,2013-09-14 01:50:00,
2013-09-13 21:00:00,58.5,53.0,28.72,NE,52,0.0,0.0,82,0.00,FEW,,0.00,0.0,WeatherDisplay:10.37,2013-09-14 02:00:00,
2013-09-13 21:10:00,58.2,53.4,28.73,NE,52,0.0,0.0,84,0.00,FEW,,0.00,0.0,WeatherDisplay:10.37,2013-09-14 02:10:00,
2013-09-13 21:20:00,57.9,53.1,28.73,NE,52,0.0,0.0,84,0.00,FEW,,0.00,0.0,WeatherDisplay:10.37,2013-09-14 02:20:00,
2013-09-13 21:30:00,57.5,53.0,28.73,NE,52,0.0,0.0,85,0.00,FEW,,0.00,0.0,WeatherDisplay:10.37,2013-09-14 02:30:00,
2013-09-13 21:40:00,57.2,53.0,28.73,NE,52,0.0,0.0,86,0.00,FEW,,0.00,0.0,WeatherDisplay:10.37,2013-09-14 02:40:00,
2013-09-13 21:50:00,57.0,52.9,28.73,NE,52,0.0,0.0,86,0.00,FEW,,0.00,0.0,WeatherDisplay:10.37,2013-09-14 02:50:00,
2013-09-13 22:00:00,56.8,52.9,28.73,NE,52,0.0,0.0,87,0.00,FEW,,0.00,0.0,WeatherDisplay:10.37,2013-09-14 03:00:00,
2013-09-13 22:10:00,56.3,52.5,28.73,NE,52,0.0,0.0,87,0.00,FEW,,0.00,0.0,WeatherDisplay:10.37,2013-09-14 03:10:00,
2013-09-13 22:20:00,56.0,52.5,28.73,NE,52,0.0,0.0,88,0.00,FEW,,0.00,0.0,WeatherDisplay:10.37,2013-09-14 03:20:00,
2013-09-13 22:30:00,55.8,52.3,28.73,NE,52,0.0,0.0,88,0.00,FEW,,0.00,0.0,WeatherDisplay:10.37,2013-09-14 03:30:00,
2013-09-13 22:40:00,55.6,52.4,28.74,NE,52,0.0,0.0,89,0.00,FEW,,0.00,0.0,WeatherDisplay:10.37,2013-09-14 03:40:00,
2013-09-13 22:50:00,55.3,52.1,28.73,NE,52,0.0,0.0,89,0.00,FEW,,0.00,0.0,WeatherDisplay:10.37,2013-09-14 03:50:00,
2013-09-13 23:00:00,55.2,52.3,28.73,NE,52,0.0,0.0,90,0.00,FEW,,0.00,0.0,WeatherDisplay:10.37,2013-09-14 04:00:00,
2013-09-13 23:10:00,55.0,52.1,28.74,NE,52,0.0,0.0,90,0.00,FEW,,0.00,0.0,WeatherDisplay:10.37,2013-09-14 04:10:00,
2013-09-13 23:20:00,54.8,51.9,28.73,NE,52,0.0,0.0,90,0.00,FEW,,0.00,0.0,WeatherDisplay:10.37,2013-09-14 04:20:00,
2013-09-13 23:30:00,54.6,51.7,28.74,NE,52,0.0,0.0,90,0.00,FEW,,0.00,0.0,WeatherDisplay:10.37,2013-09-14 04:30:00,
2013-09-13 23:40:00,54.5,51.9,28.73,NE,52,0.0,0.0,91,0.00,FEW,,0.00,0.0,WeatherDisplay:10.37,2013-09-14 04:40:00,
2013-09-13 23:50:00,54.4,51.8,28.74,NE,52,0.0,0.0,91,0.00,FEW,,0.00,0.0,WeatherDisplay:10.37,2013-09-14 04:50:00,